Temperature
16 16 16 16 16 16 16 16 15 15 16 16 16 16 16 15 15 15 15 15 15 15 15 15 15 15 15 15 15 15 15 15 15 15 15 15 15 15 15 15 15 15 15
16 16 16 16 16 15 15 15 15 15 15 15 15 15 15 15 15 15 15 15 15 15 15 15 15 15 15 15 15 15 15 15 15 15 15 15 15 14 14 15 14 14 15
16 16 16 16 15 15 15 15 15 15 15 15 15 15 15 15 15 15 15 15 15 15 15 14 14 14 14 14 14 14 14 15 15 15 14 14 14 14 14 14 14 14 14
16 15 15 15 15 15 15 15 15 15 15 15 15 15 15 15 15 15 15 15 15 15 14 14 14 14 14 14 14 14 14 14 14 14 14 14 14 14 14 14 14 14 14
15 15 15 15 15 15 15 15 15 15 15 15 15 15 15 15 14 14 14 14 14 14 14 14 14 14 14 14 13 13 14 14 14 14 14 14 14 14 14 14 13 13 13
15 15 15 15 15 15 15 15 15 15 15 15 14 14 14 14 14 14 14 14 14 14 14 14 14 14 14 13 13 13 13 13 13 13 13 13 13 13 13 13 13 13 13
15 15 15 15 15 15 15 15 15 15 15 15 15 14 14 14 14 14 14 14 14 14 14 14 14 14 14 13 13 13 13 13 13 13 13 13 13 13 13 13 13 13 13
15 15 15 15 15 15 15 15 15 15 14 14 14 14 14 14 14 13 14 14 14 14 14 13 13 13 13 13 13 13 13 13 13 13 13 12 12 13 13 13 13 13 12
15 15 15 15 15 15 15 15 14 15 14 14 14 14 14 13 13 13 13 13 13 13 13 13 13 13 13 13 13 13 13 13 13 12 12 12 12 12 12 12 12 12 12
14 14 14 14 14 14 14 14 14 14 14 14 14 14 14 14 13 13 13 13 13 13 13 13 13 13 13 13 13 13 13 13 12 12 12 12 12 12 12 12 12 11 12
14 14 14 14 14 14 14 14 14 14 14 14 14 14 14 14 14 13 13 13 13 13 13 13 13 13 13 13 13 13 13 13 12 12 12 12 12 11 11 11 11 11 11
14 14 14 14 14 14 14 14 14 14 14 14 14 14 14 14 14 14 13 13 13 13 13 12 12 13 13 13 13 13 13 12 12 12 12 12 12 11 11 11 11 11 11
14 14 14 14 14 14 14 14 14 14 14 14 14 14 14 14 14 14 14 13 13 12 12 12 12 12 12 12 12 12 12 12 12 12 12 12 11 11 11 11 11 10 10
14 14 14 14 14 14 14 14 14 14 14 14 14 14 14 14 14 14 14 13 13 12 12 12 12 12 12 12 12 12 12 12 12 12 12 12 12 11 11 11 11 10 10
14 14 14 14 14 14 14 14 14 14 14 14 14 14 14 14 14 14 13 13 13 13 12 12 12 12 12 12 12 12 12 12 12 12 12 12 12 11 11 11 11 11 10
14 14 14 14 14 14 14 14 14 14 14 14 14 13 14 14 13 13 13 13 13 13 13 12 12 12 12 12 12 12 12 12 11 11 11 11 11 11 11 11 11 11 10
14 14 14 14 14 14 14 14 14 14 14 13 13 13 13 13 13 13 13 13 13 13 13 12 12 12 12 12 12 12 11 11 11 11 11 11 11 11 11 11 10 10 10
14 14 14 14 14 14 13 13 13 13 13 13 13 13 13 13 13 13 13 13 13 12 12 12 12 12 12 11 11 11 11 11 11 11 11 11 11 11 11 10 10 10 10
14 14 14 14 14 13 13 13 13 13 13 13 13 13 13 13 13 13 12 12 12 12 12 12 12 12 11 11 11 11 11 11 11 10 10 10 10 10 10 10 10 10 10
14 14 14 14 14 13 13 13 13 13 13 13 13 13 13 12 12 12 12 12 12 12 12 12 12 11 11 11 11 11 11 10 10 10 10 10 10 10 10 10 10 10 9
14 14 14 14 14 13 13 13 13 13 13 13 13 13 12 12 12 12 12 12 12 12 12 12 11 11 11 11 11 10 10 10 10 10 10 10 10 10 10 10 9 9 9
14 14 14 14 13 13 13 13 13 13 13 13 13 12 12 12 12 12 12 12 12 12 12 11 11 11 11 11 10 10 10 10 10 10 10 10 9 9 9 9 9 9 9
14 13 13 13 13 13 13 13 13 13 13 12 12 12 12 12 12 12 12 12 12 11 11 11 11 11 11 11 10 10 10 10 10 9 9 9 9 9 9 9 9 8 8
13 13 13 13 13 13 13 13 13 13 12 12 12 12 12 12 12 12 11 12 12 11 11 11 11 11 10 10 10 10 9 9 9 9 9 9 9 9 9 9 8 8 8
13 13 13 13 13 13 13 12 12 12 12 12 12 12 12 12 12 11 11 11 11 11 11 11 11 10 10 10 10 9 9 9 9 9 9 8 8 8 8 8 8 8 8
13 13 13 13 13 13 13 12 12 12 12 12 12 12 12 12 12 11 11 11 11 11 11 11 11 10 10 10 9 9 9 9 8 8 8 8 8 8 7 8 8 8 8
Wind_Speed
3 3 3 5 5 6 6 6 6 7 7 7 8 8 7 7 7 7 7 9 9 9 9 9 9 9 9 8 9 8 8 8 8 9 9 9 9 9 9 8 8 8 8
5 4 4 4 5 6 7 7 7 6 6 6 6 7 7 7 7 7 6 7 8 8 8 9 9 9 9 8 8 8 8 8 9 9 9 9 9 9 9 8 8 8 9
7 5 4 3 4 6 7 7 7 7 5 5 5 5 6 6 6 6 6 6 6 7 8 8 9 9 9 9 9 8 8 8 9 9 9 8 8 8 7 7 8 9 9
8 6 4 3 6 7 6 4 4 5 5 4 4 3 4 4 5 6 6 6 6 6 7 9 9 9 9 9 8 8 8 8 8 8 8 8 8 8 7 7 8 8 9
8 7 4 4 6 6 4 4 4 4 4 4 3 3 3 3 3 5 5 6 6 7 7 7 8 9 9 8 8 8 8 8 8 8 9 9 8 8 8 8 8 9 9
7 7 5 5 6 4 4 4 4 3 3 3 4 4 4 3 3 3 3 5 6 6 6 7 7 7 8 8 8 8 8 8 8 9 9 9 9 9 9 9 10 10 10
6 6 4 4 4 4 3 4 3 4 3 3 4 4 4 5 4 3 3 3 4 4 6 6 7 6 6 7 7 7 8 8 8 8 8 8 8 9 10 10 10 10 10
5 5 4 3 3 3 4 3 3 2 1 2 3 3 2 4 4 4 3 2 2 4 4 5 6 6 6 6 6 6 6 6 7 7 7 7 8 8 9 9 9 10 10
4 5 5 4 3 3 3 3 3 3 2 0 1 3 3 1 1 3 3 3 3 3 3 5 5 5 5 5 5 5 5 5 6 6 6 6 7 8 8 9 9 9 9
3 5 5 4 3 3 3 3 2 2 3 1 0 1 2 4 2 1 3 3 3 3 2 3 4 4 5 5 5 5 5 5 5 5 5 5 6 7 7 8 8 9 8
1 3 4 3 3 2 2 2 2 2 2 2 1 1 2 2 2 2 1 2 3 2 2 2 3 3 4 4 4 4 4 5 5 5 6 6 7 7 6 7 8 8 8
0 1 3 3 3 2 2 2 2 3 2 1 1 1 2 2 2 2 2 1 1 2 2 1 2 2 3 3 2 3 3 3 4 4 5 6 6 6 6 6 7 7 7
1 1 2 2 2 2 3 2 2 2 2 2 2 1 2 2 2 2 3 1 0 1 1 1 0 1 2 2 2 2 3 3 3 3 4 5 5 5 5 5 6 5 5
3 3 3 3 3 3 3 2 1 1 2 2 2 2 2 1 2 3 3 3 1 1 1 1 1 1 2 2 2 2 2 2 3 4 4 4 5 5 5 4 4 4 3
3 3 4 3 3 3 3 3 1 1 2 2 2 2 2 1 2 2 3 4 3 2 2 2 1 1 2 3 2 2 2 2 3 3 4 4 4 4 4 4 3 2 2
3 4 3 3 3 2 3 3 2 2 2 1 1 2 1 1 1 2 2 2 2 3 2 2 2 1 3 2 2 2 2 2 2 3 3 4 4 4 3 3 2 2 1
4 4 4 4 3 3 2 3 2 2 2 1 1 2 1 1 2 1 1 2 2 3 3 1 0 0 1 1 1 2 2 2 2 2 3 3 3 3 3 3 2 2 1
4 4 4 4 4 3 3 3 3 3 3 2 2 2 1 1 1 1 2 2 2 2 3 2 1 0 1 1 1 1 2 2 2 2 3 3 3 3 3 3 3 2 2
4 3 4 4 4 4 4 4 4 3 3 3 3 3 2 2 2 1 2 2 1 2 2 3 1 1 0 0 0 1 0 1 2 3 4 4 4 4 4 4 4 4 4
4 4 4 4 4 4 4 4 3 3 2 2 3 3 3 3 3 3 2 2 2 3 3 3 1 0 0 1 1 0 1 1 1 2 2 3 4 5 5 5 5 5 5
5 4 4 3 3 3 4 4 4 3 3 2 2 2 3 3 4 3 3 3 3 3 3 2 2 0 0 0 1 1 1 1 2 1 1 2 3 3 4 6 6 6 6
3 3 4 4 3 3 5 6 5 4 3 3 2 2 2 2 4 4 4 5 5 5 5 4 3 3 3 3 2 2 1 1 2 2 1 2 2 2 5 5 6 7 7
3 3 3 4 3 4 5 6 6 4 4 4 3 3 2 1 2 2 3 3 4 5 7 6 5 5 5 5 4 3 2 2 3 2 1 3 2 3 5 6 7 8 8
3 3 3 4 3 3 5 6 6 4 3 3 4 4 4 3 3 3 3 2 2 3 5 5 6 7 6 6 6 5 4 2 1 2 2 2 2 3 4 5 7 8 8
3 3 3 4 3 3 4 5 6 4 3 3 3 3 4 4 5 5 4 3 2 3 3 5 6 6 7 7 6 4 2 2 1 2 1 2 2 2 3 4 6 7 8
3 3 2 3 3 3 3 4 5 3 3 3 2 3 4 4 5 5 5 5 4 4 2 1 2 2 4 5 7 6 5 3 2 2 3 2 2 1 3 3 4 5 6
Wind_Direction
101 98 89 90 92 91 88 84 82 82 79 78 83 84 80 77 76 68 63 70 74 75 74 74 77 79 85 88 87 83 79 76 74 72 68 66 66 64 64 66 68 68 70
105 98 88 88 90 91 91 90 87 86 79 78 75 80 79 79 80 76 66 63 68 70 69 67 73 77 81 86 85 83 79 77 77 74 72 67 64 62 62 63 66 67 70
101 101 96 91 89 95 93 87 79 77 76 71 64 69 73 77 79 77 73 63 61 64 66 66 71 76 81 84 84 83 79 78 79 77 73 67 62 58 61 65 67 67 69
105 102 95 90 97 95 93 88 78 79 72 66 60 54 66 72 71 77 74 69 69 67 66 68 70 75 80 84 84 83 82 82 82 79 74 66 59 59 62 71 74 73 72
99 102 98 103 102 96 88 97 84 92 89 74 66 56 51 59 60 78 71 69 74 73 70 68 70 71 74 78 82 81 81 82 81 79 74 67 61 56 65 77 81 81 79
101 101 103 97 98 90 78 84 91 82 93 90 78 58 39 41 54 65 70 70 75 76 77 73 66 66 66 71 76 78 79 78 76 76 72 66 63 61 72 80 83 83 83
105 105 105 101 97 95 98 100 98 83 75 93 82 50 28 32 43 44 51 60 61 71 78 76 74 67 61 62 65 72 75 74 73 74 70 67 68 67 73 79 83 84 83
110 117 117 112 107 104 96 95 102 101 92 92 109 93 36 10 13 27 33 56 54 68 73 82 81 76 69 61 56 65 71 74 73 74 75 73 72 75 77 82 87 86 85
112 121 127 124 120 121 134 137 133 132 152 284 128 136 138 195 330 353 10 27 36 56 68 87 89 85 79 70 60 58 67 75 74 72 77 81 83 80 81 84 87 86 84
116 130 138 139 137 136 142 160 142 145 143 174 327 98 151 154 149 352 345 2 20 43 55 90 96 89 85 79 70 62 62 72 74 71 72 87 99 90 85 89 90 89 86
104 126 142 142 143 146 146 145 132 132 144 157 163 113 87 83 117 142 235 328 360 3 31 81 101 97 91 84 77 69 68 70 71 70 71 83 99 98 93 91 91 89 86
317 120 145 139 145 151 159 161 149 147 148 139 138 134 144 149 159 148 171 213 286 324 5 39 96 113 101 88 89 85 90 86 84 82 82 89 95 99 100 99 97 92 87
227 223 161 155 157 161 160 152 137 160 160 150 157 153 145 156 154 146 142 162 204 305 359 2 18 136 121 119 117 103 104 112 119 110 107 106 108 107 108 106 106 100 94
210 198 170 164 166 163 151 139 126 161 149 160 156 143 133 142 137 145 151 146 119 357 348 288 335 204 176 157 151 137 125 114 132 133 128 122 124 127 125 115 111 109 104
203 182 171 167 168 165 160 148 149 175 157 162 162 151 146 159 155 153 152 153 151 170 235 244 237 234 201 182 184 162 151 135 137 142 143 135 130 133 133 132 131 125 116
191 175 174 170 172 170 162 151 154 166 147 168 163 144 141 156 148 152 157 155 146 156 193 223 218 225 197 195 203 187 178 146 148 161 157 150 146 146 145 144 145 147 143
193 185 179 174 176 180 169 155 169 166 165 192 181 166 187 162 149 150 141 141 145 138 161 240 200 168 171 187 188 195 192 180 192 190 177 166 160 160 160 164 168 167 174
196 191 182 177 185 190 181 171 185 186 181 190 198 170 194 162 157 156 148 148 152 147 148 163 199 187 204 200 185 185 203 199 209 216 204 198 196 197 198 200 201 204 210
194 187 179 183 191 195 193 192 187 190 194 197 193 187 200 170 181 177 158 155 160 138 128 145 182 210 264 125 26 305 251 237 231 231 226 226 225 224 225 227 227 230 227
181 186 192 196 195 194 191 186 179 182 191 200 196 192 190 181 188 182 170 168 148 127 122 127 140 196 267 326 119 245 314 315 278 241 236 239 239 241 242 243 240 237 232
189 189 188 196 195 191 197 187 181 178 177 188 200 202 199 193 189 185 177 173 156 148 147 148 161 168 249 242 236 228 239 289 296 267 260 256 244 250 256 254 248 242 235
195 192 193 190 193 212 209 191 174 170 173 177 194 219 219 208 210 202 192 183 175 170 176 178 192 202 227 218 207 201 211 269 282 274 200 271 237 248 257 251 243 240 238
190 193 196 185 194 218 205 191 182 169 176 188 193 201 223 221 191 187 195 195 206 200 190 187 194 210 211 210 191 199 209 214 238 247 204 266 267 254 256 254 247 243 241
193 195 193 190 191 212 201 193 183 170 177 195 199 196 197 213 213 187 178 189 229 239 217 202 205 213 212 202 193 196 200 211 285 273 179 235 268 266 271 261 254 247 244
196 194 189 187 193 221 214 198 179 169 185 212 217 208 199 211 222 195 174 192 232 267 240 217 217 212 207 197 177 146 151 155 267 270 223 205 252 282 282 270 262 248 242
197 189 176 189 197 217 223 201 176 166 187 216 231 232 220 217 218 200 183 186 208 237 228 210 207 211 200 196 188 179 178 182 213 253 232 196 235 271 289 280 271 267 255
Height
1543 1543 1543 1543 1543 1543 1543 1543 1543 1544 1544 1544 1544 1544 1544 1544 1544 1543 1543 1543 1542 1542 1541 1540 1540 1539 1539 1538 1538 1538 1538 1537 1537 1537 1536 1536 1535 1535 1534 1534 1534 1533 1533
1545 1544 1544 1544 1544 1545 1545 1545 1545 1545 1545 1545 1545 1545 1545 1545 1545 1544 1544 1543 1543 1543 1542 1541 1541 1540 1539 1539 1539 1538 1538 1538 1537 1537 1536 1536 1535 1534 1534 1534 1533 1533 1533
1546 1545 1545 1545 1546 1546 1546 1546 1546 1546 1546 1546 1546 1546 1546 1546 1546 1545 1545 1544 1544 1543 1543 1542 1541 1541 1540 1539 1539 1539 1538 1538 1537 1537 1536 1535 1534 1533 1533 1533 1532 1533 1533
1547 1546 1546 1546 1547 1547 1547 1547 1547 1547 1547 1547 1547 1547 1547 1547 1547 1546 1546 1546 1545 1544 1544 1543 1542 1542 1541 1540 1540 1539 1539 1538 1537 1537 1536 1534 1533 1532 1531 1531 1531 1532 1532
1547 1547 1547 1547 1548 1548 1548 1548 1548 1548 1548 1548 1548 1548 1548 1548 1548 1548 1547 1547 1546 1545 1545 1544 1543 1542 1542 1541 1541 1540 1539 1538 1538 1536 1535 1533 1532 1529 1527 1528 1530 1531 1532
1548 1548 1548 1548 1548 1549 1549 1549 1549 1549 1549 1549 1549 1549 1549 1549 1549 1549 1548 1548 1547 1546 1546 1545 1544 1543 1543 1542 1541 1540 1539 1539 1538 1536 1535 1533 1531 1528 1526 1527 1529 1531 1532
1549 1549 1549 1549 1549 1549 1549 1550 1549 1549 1550 1550 1550 1550 1550 1550 1550 1550 1549 1548 1548 1547 1546 1546 1545 1544 1543 1542 1542 1541 1540 1539 1538 1537 1535 1534 1532 1530 1528 1528 1530 1531 1532
1549 1549 1549 1549 1549 1549 1550 1550 1550 1550 1550 1550 1550 1550 1550 1552 1551 1550 1550 1549 1548 1548 1547 1546 1545 1545 1544 1543 1542 1541 1540 1539 1538 1537 1535 1534 1533 1532 1531 1531 1531 1532 1532
1549 1549 1549 1549 1549 1549 1550 1550 1550 1550 1550 1550 1550 1551 1550 1550 1551 1551 1550 1549 1549 1548 1547 1546 1546 1545 1544 1543 1542 1542 1541 1539 1538 1536 1534 1533 1532 1533 1533 1533 1533 1533 1533
1548 1548 1549 1549 1549 1549 1549 1549 1550 1550 1550 1550 1550 1550 1551 1550 1550 1550 1551 1550 1549 1548 1548 1547 1546 1545 1545 1544 1543 1542 1541 1539 1537 1535 1532 1530 1530 1532 1533 1534 1534 1534 1534
1548 1548 1548 1548 1548 1549 1549 1549 1549 1549 1549 1550 1549 1549 1549 1549 1549 1549 1549 1549 1549 1548 1548 1547 1547 1546 1545 1544 1543 1542 1541 1540 1538 1536 1532 1530 1531 1533 1534 1535 1535 1535 1535
1548 1548 1548 1548 1548 1548 1548 1548 1549 1549 1549 1549 1549 1549 1549 1549 1548 1548 1548 1548 1548 1548 1548 1547 1547 1546 1545 1545 1544 1543 1542 1541 1539 1537 1535 1534 1534 1535 1535 1535 1536 1536 1536
1547 1547 1547 1547 1547 1548 1548 1548 1548 1548 1548 1548 1548 1548 1548 1548 1548 1548 1548 1547 1547 1547 1547 1547 1547 1546 1546 1545 1544 1543 1543 1541 1540 1539 1538 1537 1536 1536 1536 1536 1536 1536 1536
1546 1546 1546 1546 1547 1547 1547 1547 1547 1547 1547 1547 1547 1547 1547 1547 1547 1547 1547 1547 1547 1547 1547 1546 1546 1546 1546 1545 1544 1543 1542 1541 1540 1540 1539 1538 1537 1537 1536 1536 1536 1536 1536
1544 1545 1545 1545 1546 1546 1546 1546 1546 1546 1546 1546 1546 1546 1546 1546 1546 1546 1546 1546 1547 1545 1545 1545 1545 1545 1545 1544 1544 1543 1542 1541 1540 1540 1539 1538 1538 1537 1537 1536 1536 1536 1535
1543 1543 1543 1544 1544 1544 1545 1545 1545 1545 1545 1545 1545 1545 1545 1545 1545 1545 1545 1545 1545 1545 1544 1544 1544 1544 1544 1543 1543 1542 1541 1541 1540 1540 1539 1538 1538 1537 1537 1536 1536 1535 1535
1541 1541 1542 1542 1542 1542 1543 1543 1543 1543 1543 1543 1543 1543 1543 1543 1543 1543 1543 1543 1543 1543 1543 1543 1543 1543 1543 1542 1542 1541 1541 1540 1539 1539 1539 1538 1537 1537 1536 1536 1535 1535 1534
1538 1539 1540 1540 1540 1540 1541 1541 1541 1542 1542 1542 1542 1542 1542 1542 1541 1541 1541 1541 1541 1541 1541 1540 1540 1541 1541 1540 1540 1540 1539 1539 1538 1538 1537 1537 1536 1536 1535 1535 1534 1533 1533
1536 1537 1538 1538 1538 1539 1539 1539 1540 1540 1540 1540 1540 1540 1540 1540 1540 1540 1539 1539 1539 1539 1539 1538 1538 1538 1538 1538 1538 1538 1537 1537 1536 1536 1535 1535 1535 1535 1534 1533 1532 1531 1531
1534 1535 1535 1536 1536 1537 1537 1537 1538 1538 1538 1538 1538 1538 1538 1538 1538 1537 1537 1537 1537 1537 1537 1536 1536 1536 1536 1536 1536 1535 1534 1534 1534 1534 1533 1533 1533 1532 1532 1531 1530 1529 1529
1532 1532 1533 1533 1534 1534 1535 1535 1535 1535 1535 1535 1535 1536 1535 1536 1535 1535 1535 1535 1535 1534 1534 1534 1534 1533 1533 1533 1533 1533 1532 1531 1531 1531 1531 1530 1530 1529 1529 1528 1528 1527 1526
1529 1530 1530 1530 1531 1532 1532 1532 1533 1533 1533 1533 1533 1533 1533 1533 1533 1533 1532 1532 1533 1532 1532 1531 1531 1531 1530 1530 1531 1530 1530 1529 1528 1529 1527 1527 1527 1526 1526 1525 1525 1524 1523
1526 1527 1527 1527 1528 1529 1529 1530 1530 1530 1530 1530 1530 1530 1530 1530 1530 1530 1529 1529 1529 1529 1529 1529 1528 1528 1528 1528 1528 1527 1527 1526 1525 1525 1525 1523 1523 1523 1523 1522 1522 1521 1520
1524 1524 1524 1525 1525 1526 1526 1527 1527 1527 1527 1527 1527 1527 1527 1527 1527 1527 1526 1526 1526 1526 1526 1525 1525 1525 1525 1525 1525 1525 1524 1523 1523 1522 1522 1520 1520 1519 1519 1518 1518 1517 1516
1521 1521 1521 1522 1522 1523 1523 1523 1524 1524 1524 1524 1524 1524 1524 1523 1523 1523 1523 1522 1522 1522 1522 1522 1522 1522 1522 1522 1522 1522 1521 1520 1518 1518 1519 1518 1516 1515 1515 1514 1513 1513 1512
1518 1518 1518 1519 1519 1520 1520 1521 1521 1521 1520 1520 1520 1520 1520 1520 1520 1519 1519 1519 1518 1518 1518 1518 1518 1518 1518 1518 1518 1518 1517 1517 1516 1515 1515 1515 1513 1512 1511 1510 1509 1509 1508